TimePDT,TemperatureF,Dew PointF,Humidity,Sea Level PressureIn,VisibilityMPH,Wind Direction,Wind SpeedMPH,Gust SpeedMPH,PrecipitationIn,Events,Conditions,WindDirDegrees,DateUTC
12:55 AM,46.9,44.1,90,29.76,10.0,East,4.6,-,N/A,,Clear,90,2012-11-01 07:55:00
3:20 AM,50.0,46.4,87,29.76,10.0,Calm,Calm,-,N/A,,Overcast,0,2012-11-01 10:20:00
3:35 AM,50.0,46.4,87,29.76,10.0,Calm,Calm,-,N/A,,Overcast,0,2012-11-01 10:35:00
3:55 AM,50.0,46.9,89,29.77,10.0,SE,5.8,-,N/A,,Overcast,130,2012-11-01 10:55:00
4:12 AM,50.0,46.4,87,29.76,2.5,ENE,8.1,-,N/A,,Overcast,60,2012-11-01 11:12:00
4:15 AM,50.0,46.4,87,29.76,0.8,ENE,6.9,-,N/A,,Overcast,60,2012-11-01 11:15:00
4:27 AM,50.0,46.4,87,29.76,2.0,Calm,Calm,-,N/A,,Overcast,0,2012-11-01 11:27:00
4:34 AM,50.0,46.4,87,29.77,6.0,East,4.6,-,N/A,,Overcast,90,2012-11-01 11:34:00
4:55 AM,50.0,46.9,89,29.77,9.0,East,4.6,-,N/A,,Overcast,80,2012-11-01 11:55:00
5:09 AM,50.0,46.4,87,29.76,9.0,ESE,5.8,-,N/A,,Overcast,120,2012-11-01 12:09:00
5:29 AM,50.0,46.4,87,29.77,5.0,Calm,Calm,-,N/A,,Mostly Cloudy,0,2012-11-01 12:29:00
7:10 AM,48.2,44.6,87,29.77,5.0,SE,4.6,-,N/A,,Mostly Cloudy,140,2012-11-01 14:10:00
7:55 AM,48.0,44.1,86,29.79,10.0,Calm,Calm,-,N/A,,Clear,0,2012-11-01 14:55:00
8:44 AM,48.2,44.6,87,29.79,10.0,SE,5.8,-,N/A,,Mostly Cloudy,140,2012-11-01 15:44:00
8:55 AM,48.9,46.0,90,29.80,10.0,SE,3.5,-,N/A,,Mostly Cloudy,140,2012-11-01 15:55:00
9:04 AM,48.2,46.4,93,29.80,10.0,SSE,3.5,-,N/A,,Overcast,150,2012-11-01 16:04:00
9:12 AM,48.2,46.4,93,29.80,9.0,South,3.5,-,N/A,,Overcast,170,2012-11-01 16:12:00
9:55 AM,50.0,46.0,86,29.82,7.0,Calm,Calm,-,N/A,,Overcast,0,2012-11-01 16:55:00
10:55 AM,51.1,46.0,83,29.83,9.0,Calm,Calm,-,N/A,,Overcast,0,2012-11-01 17:55:00
11:29 AM,51.8,46.4,82,29.83,8.0,NW,3.5,-,N/A,,Scattered Clouds,310,2012-11-01 18:29:00
11:55 AM,53.1,46.0,77,29.84,9.0,Calm,Calm,-,N/A,,Scattered Clouds,0,2012-11-01 18:55:00
1:15 PM,55.4,46.4,72,29.84,10.0,SSW,6.9,-,N/A,,Mostly Cloudy,210,2012-11-01 20:15:00
1:31 PM,53.6,46.4,77,29.84,10.0,SSW,6.9,-,N/A,,Scattered Clouds,200,2012-11-01 20:31:00
1:55 PM,55.0,45.0,69,29.84,10.0,West,3.5,-,N/A,,Clear,280,2012-11-01 20:55:00
2:55 PM,55.9,45.0,67,29.85,10.0,West,3.5,-,N/A,,Scattered Clouds,260,2012-11-01 21:55:00
3:55 PM,57.0,45.0,64,29.86,10.0,NW,6.9,-,N/A,,Overcast,320,2012-11-01 22:55:00
4:55 PM,57.0,45.0,64,29.87,10.0,WSW,3.5,-,N/A,,Overcast,250,2012-11-01 23:55:00
5:55 PM,52.0,44.1,74,29.89,10.0,NNE,3.5,-,N/A,,Clear,20,2012-11-02 00:55:00
6:55 PM,51.1,44.1,77,29.92,10.0,West,3.5,-,N/A,,Partly Cloudy,260,2012-11-02 01:55:00
7:55 PM,52.0,43.0,71,29.94,10.0,NW,3.5,-,N/A,,Clear,310,2012-11-02 02:55:00
8:55 PM,51.1,43.0,74,29.96,10.0,NNW,6.9,-,N/A,,Overcast,330,2012-11-02 03:55:00
9:55 PM,51.1,44.1,77,29.98,10.0,West,5.8,-,N/A,,Overcast,280,2012-11-02 04:55:00
10:55 PM,51.1,44.1,77,30.00,10.0,NNW,6.9,-,N/A,,Overcast,330,2012-11-02 05:55:00
11:55 PM,50.0,43.0,77,30.01,10.0,NW,8.1,-,N/A,,Overcast,310,2012-11-02 06:55:00